Tucson, AZ

3:21 PM MST on October 22, 2019 (GMT -0700)
Tucson International

Weather History for KTUS - August, 2019

Change the Weather History Date:

Tuesday, August 13, 2019

  Actual Average Record
Temperature  
Mean Temperature 90 °F 85 °F  
Max Temperature 104 °F 97 °F 109 °F (2012)
Min Temperature 75 °F 74 °F 63 °F (1925)
Degree Days  
Heating Degree Days 0 0  
Month to date heating degree days 0 0  
Since 1 June heating degree days 0 0  
Since 1 July heating degree days 0 0  
Cooling Degree Days 25 20  
Month to date cooling degree days 310 266  
Year to date cooling degree days 2087 2045  
Since 1 June cooling degree days 1715 1543  
Growing Degree Days 38 (Base 50)    
Moisture  
Dew Point 52 °F    
Average Humidity 31    
Maximum Humidity 62    
Minimum Humidity 13    
Precipitation  
Precipitation 0.00 in 0.08 in 1.81 in (1993)
Month to date precipitation 1.15 1.08  
Year to date precipitation 7.25 6.60  
Sea Level Pressure  
Sea Level Pressure 29.87 in    
Wind  
Wind Speed 5 mph (SSW)    
Max Wind Speed 14 mph    
Max Gust Speed 20 mph    
Visibility 10 miles    
Events      
T = Trace of Precipitation, MM = Missing Value Source: NWS Daily Summary

Daily Weather History Graph

Daily Weather History Graph

Search for Another Location

Airport or City:

Astronomy

Aug. 13, 2019 Rise Set
Actual Time 5:46 AM MST 7:10 PM MST
Civil Twilight 5:20 AM MST 7:35 PM MST
Nautical Twilight 4:49 AM MST 8:06 PM MST
Astronomical Twilight 4:17 AM MST 8:38 PM MST
Moon 6:20 PM MST (8/13) 3:59 AM MST (8/13)
Length of Visible Light 14h 15m
Length of Day
13h 23m
Waxing Gibbous, 97% of the Moon is Illuminated
Aug 13
Waxing Gibbous
Aug 15
Full
Aug 23
Last Quarter
Aug 30
New
Sep 5
First Quarter

Hourly Weather History & Observations

Time (MST) Temp. Heat Index Dew Point Humidity Pressure Visibility Wind Dir Wind Speed Gust Speed Precip Events Conditions
12:53 AM 82.9 °F 83.2 °F 60.1 °F 46% 29.86 in 10.0 mi South 4.6 mph - N/A   Clear
1:53 AM 81.0 °F 81.7 °F 61.0 °F 50% 29.86 in 10.0 mi SSE 4.6 mph - N/A   Clear
2:53 AM 79.0 °F - 60.1 °F 52% 29.87 in 10.0 mi SSE 6.9 mph - N/A   Clear
3:53 AM 79.0 °F - 61.0 °F 54% 29.88 in 10.0 mi South 6.9 mph - N/A   Clear
4:53 AM 77.0 °F - 62.1 °F 60% 29.88 in 10.0 mi SSE 3.5 mph - N/A   Clear
5:53 AM 75.9 °F - 62.1 °F 62% 29.91 in 10.0 mi SSE 4.6 mph - N/A   Clear
6:53 AM 77.0 °F - 63.0 °F 62% 29.92 in 10.0 mi South 4.6 mph - N/A   Clear
7:53 AM 82.0 °F 83.0 °F 62.1 °F 51% 29.93 in 10.0 mi Calm Calm - N/A   Clear
8:53 AM 86.0 °F 85.7 °F 60.1 °F 41% 29.93 in 10.0 mi Calm Calm - N/A   Clear
9:53 AM 90.0 °F 88.6 °F 57.0 °F 33% 29.93 in 10.0 mi Variable 6.9 mph - N/A   Clear
10:53 AM 93.9 °F 91.4 °F 53.1 °F 25% 29.92 in 10.0 mi North 5.8 mph - N/A   Clear
11:53 AM 97.0 °F - 50.0 °F 20% 29.90 in 10.0 mi Variable 3.5 mph - N/A   Clear
12:39 PM 99.0 °F - 48.0 °F 18% 30.05 in 10.0 mi Variable 3.5 mph - N/A   Clear
12:53 PM 99.0 °F - 48.0 °F 18% 29.88 in 10.0 mi Variable 5.8 mph - N/A   Clear
1:53 PM 100.9 °F - 43.0 °F 14% 29.86 in 10.0 mi WNW 10.4 mph 17.3 mph N/A   Clear
2:53 PM 102.0 °F - 42.1 °F 13% 29.83 in 10.0 mi NNE 9.2 mph - N/A   Clear
3:53 PM 102.0 °F - 43.0 °F 13% 29.81 in 10.0 mi North 5.8 mph - N/A   Clear
4:53 PM 102.0 °F - 42.1 °F 13% 29.80 in 10.0 mi NNW 6.9 mph - N/A   Clear
5:53 PM 100.9 °F - 43.0 °F 14% 29.79 in 10.0 mi WNW 8.1 mph - N/A   Clear
6:53 PM 98.1 °F - 43.0 °F 15% 29.80 in 10.0 mi NNW 6.9 mph - N/A   Clear
7:53 PM 93.0 °F - 43.0 °F 18% 29.82 in 10.0 mi NW 4.6 mph - N/A   Clear
8:53 PM 90.0 °F - 45.0 °F 21% 29.84 in 10.0 mi Calm Calm - N/A   Clear
9:53 PM 88.0 °F - 45.0 °F 22% 29.85 in 10.0 mi Calm Calm - N/A   Clear
10:53 PM 86.0 °F - 46.0 °F 25% 29.86 in 10.0 mi South 5.8 mph - N/A   Clear
11:53 PM 82.0 °F - 48.9 °F 31% 29.86 in 10.0 mi SSE 5.8 mph - N/A   Clear